Tracking 19564 objects as of 19-Mar-2019
HD Live streaming from Space Station
objects crossing your sky now

LEMUR 2 SPIRE-MINIONS

Track LEMUR 2 SPIRE-MINIONS now!
10-day predictions
LEMUR 2 SPIRE-MINIONS is classified as:


NORAD ID: 41994
Int'l Code: 2017-008AY
Perigee: 492.2 km
Apogee: 504.7 km
Inclination: 97.4 °
Period: 94.4 minutes
Semi major axis: 6869 km
RCS: Unknown
Launch date: February 15, 2017
Source: United States (US)
Launch site: SRIHARIKOTA (SRI)
aabbcc
Your satellite tracking list
Your tracking list is empty




NASA's NSSDC Master Catalog

Two Line Element Set (TLE):
1 41994U 17008AY  19077.60880218 +.00001941 +00000-0 +81036-4 0  9997
2 41994 097.4138 145.0674 0009145 108.3626 251.8607 15.24822435115229
Source of the keplerian elements: AFSPC